EW9931 Weather Reports


time (UTC)temp
C
wind
direction
speed
KPH
gust
KPH
rain 1hr
cm
rain 24hr
cm
rain mn
cm
humidity
%
barometer
mb
20260503203030 13 210 3.2 0.0 0.00 0.00 0.00 27 1000.4
20260503201528 13 147 3.2 0.0 0.00 0.00 0.00 26 1001.1
20260503200029 13 110 4.8 0.0 0.00 0.00 0.00 27 1001.3
20260503194527 13 191 3.2 0.0 0.00 0.00 0.00 27 1001.5
20260503193024 12 123 4.8 0.0 0.00 0.00 0.00 29 1002.1
20260503191522 12 196 4.8 0.0 0.00 0.00 0.00 31 1002.4
20260503190031 12 232 3.2 0.0 0.00 0.00 0.00 30 1002.6
20260503184521 12 219 3.2 0.0 0.00 0.00 0.00 31 1002.5
20260503183020 12 165 4.8 0.0 0.00 0.00 0.00 30 1002.8
20260503181537 12 202 3.2 0.0 0.00 0.00 0.00 29 1002.8
20260503180031 12 112 4.8 0.0 0.00 0.00 0.00 28 1002.8
20260503174517 12 232 4.8 0.0 0.00 0.00 0.00 27 1002.8
20260503173016 12 128 3.2 0.0 0.00 0.00 0.00 26 1002.9
20260503171523 11 222 3.2 0.0 0.00 0.00 0.00 25 1002.9
20260503120105 8 120 0.0 0.0 0.00 0.00 0.00 28 1000.8
20260503110122 9 114 0.0 0.0 0.00 0.00 0.00 28 1000.7
20260503081535 9 141 0.0 0.0 0.00 0.00 0.00 44 1001.3
20260503071532 10 137 0.0 0.0 0.00 0.00 0.00 44 1002.1
20260503054535 10 127 0.0 0.0 0.00 0.00 0.00 44 1003.5
20260503053028 10 154 0.0 0.0 0.00 0.00 0.00 45 1003.5
20260503051526 10 102 0.0 0.0 0.00 0.00 0.00 46 1003.6
20260503050029 10 144 0.0 0.0 0.00 0.00 0.00 50 1004.1
20260503044527 10 144 0.0 0.0 0.00 0.00 0.00 54 1004.1
20260503043026 10 144 0.0 0.0 0.00 0.00 0.00 56 1003.9
20260503041525 10 144 0.0 0.0 0.00 0.00 0.00 55 1003.8
20260503040030 10 144 0.0 0.0 0.00 0.00 0.00 54 1004.1
20260503034524 10 144 0.0 0.0 0.00 0.00 0.00 53 1004.1
20260503033023 11 116 0.0 0.0 0.00 0.00 0.00 50 1003.9
20260503031521 11 138 0.0 0.0 0.00 0.00 0.00 49 1003.4
20260503030021 11 157 0.0 0.0 0.00 0.00 0.00 47 1004.8
20260503024520 11 178 0.0 0.0 0.00 0.00 0.00 46 1004.5
20260503023021 11 182 1.6 0.0 0.00 0.00 0.00 46 1004.4
20260503021520 12 192 0.0 0.0 0.00 0.00 0.00 47 1003.9
20260503020019 12 191 1.6 0.0 0.00 0.00 0.00 49 1005.4
20260503014518 13 188 1.6 0.0 0.00 0.00 0.00 47 1005.5
20260503013017 13 176 1.6 0.0 0.00 0.00 0.00 43 1005.2
20260503011526 14 227 1.6 0.0 0.00 0.00 0.00 38 1004.7
20260503010015 15 232 1.6 0.0 0.00 0.00 0.00 32 1004.2
20260503004514 16 208 3.2 0.0 0.00 0.00 0.00 32 1004.4
20260503003014 16 200 3.2 0.0 0.00 0.00 0.00 27 1004.5
20260503001512 16 144 3.2 0.0 0.00 0.00 0.00 27 1004.5
20260503000011 16 203 3.2 0.0 0.00 0.00 0.00 27 1004.5
20260502234528 16 222 3.2 0.0 0.00 0.00 0.00 27 1004.5
20260502233010 16 205 3.2 0.0 0.00 0.00 0.00 26 1004.7
20260502231509 16 257 3.2 0.0 0.00 0.00 0.00 29 1004.6
20260502230008 16 145 3.2 0.0 0.00 0.00 0.00 25 1004.2
20260502224504 16 237 3.2 0.0 0.00 0.00 0.00 29 1004.3
20260502223005 16 114 3.2 0.0 0.00 0.00 0.00 22 1004.8
20260502221502 16 270 3.2 0.0 0.00 0.00 0.00 25 1005.5
20260502220004 16 203 3.2 0.0 0.00 0.00 0.00 23 1005.4
20260502214602 17 272 3.2 0.0 0.00 0.00 0.00 23 1005.5
20260502213102 17 232 1.6 0.0 0.00 0.00 0.00 20 1005.7
20260502211554 16 305 1.6 0.0 0.00 0.00 0.00 19 1005.6
20260502210101 17 270 1.6 0.0 0.00 0.00 0.00 19 1005.9
20260502204604 17 296 1.6 0.0 0.00 0.00 0.00 18 1006.1